Greenville Downtown, SC

2:21 PM EDT on March 23, 2017 (GMT -0400)
Greenville Downtown

Weather History for KGMU - March, 2011

Change the Weather History Date:

Thursday, March 10, 2011

  Actual Average Record
Temperature  
Mean Temperature 51 °F -  
Max Temperature 60 °F 58 °F 77 °F (1997)
Min Temperature 41 °F 40 °F 28 °F (1998)
Degree Days  
Heating Degree Days 14    
Growing Degree Days 1 (Base 50)    
Moisture  
Dew Point 44 °F    
Average Humidity 81    
Maximum Humidity 100    
Minimum Humidity 37    
Precipitation  
Precipitation 0.03 in - - ()
Sea Level Pressure  
Sea Level Pressure 29.87 in    
Wind  
Wind Speed 6 mph (SW)    
Max Wind Speed 21 mph    
Max Gust Speed 31 mph    
Visibility 6 miles    
Events Fog , Rain    
Averages and records for this station are not official NWS values.
T = Trace of Precipitation, MM = Missing Value Source: NWS Daily Summary

Daily Weather History Graph

Daily Weather History Graph

Search for Another Location

Airport or City:

Trip Planner

Search our weather history database for the weather conditions in past years. The results will help you decide how hot, cold, wet, or windy it might be!

Date:

Astronomy

Mar. 10, 2011 Rise Set
Actual Time 6:47 AM EST 6:32 PM EST
Civil Twilight 6:22 AM EST 6:57 PM EST
Nautical Twilight 5:52 AM EST 7:27 PM EST
Astronomical Twilight 5:23 AM EST 7:56 PM EST
Moon 9:31 AM EST (3/10) No Moon Set
Length of Visible Light 12h 35m
Length of Day
11h 45m
Waxing Crescent, 28% of the Moon is Illuminated
Mar 10
Waxing Crescent
Mar 12
First Quarter
Mar 19
Full
Mar 26
Last Quarter
Apr 3
New

Hourly Weather History & Observations

Time (EST) Temp. Windchill Dew Point Humidity Pressure Visibility Wind Dir Wind Speed Gust Speed Precip Events Conditions
12:53 AM 48.0 °F - 46.9 °F 96% 29.99 in 9.0 mi Calm Calm - N/A   Overcast
1:53 AM 48.0 °F - 48.0 °F 100% 29.95 in 6.0 mi ESE 4.6 mph - 0.00 in   Overcast
2:14 AM 48.2 °F - 46.4 °F 93% 29.94 in 8.0 mi Calm Calm - 0.00 in   Overcast
2:53 AM 48.0 °F - 48.0 °F 100% 29.93 in 5.0 mi Calm Calm - 0.00 in   Overcast
3:21 AM 48.2 °F - 48.2 °F 100% 29.91 in 1.8 mi Calm Calm - N/A   Overcast
3:37 AM 48.2 °F - 48.2 °F 100% 29.90 in 0.8 mi East 3.5 mph - N/A   Mist
3:53 AM 48.0 °F - 48.0 °F 100% 29.90 in 0.5 mi Calm Calm - 0.01 in Fog Fog
4:00 AM 48.2 °F - 48.2 °F 100% 29.89 in 0.2 mi Calm Calm - N/A Fog Fog
4:13 AM 48.2 °F - 48.2 °F 100% 29.88 in 0.2 mi Calm Calm - N/A Fog Fog
4:53 AM 48.0 °F - 48.0 °F 100% 29.88 in 0.2 mi East 4.6 mph - N/A Fog Fog
5:53 AM 48.0 °F - 48.0 °F 100% 29.86 in 0.2 mi East 4.6 mph - N/A Fog Fog
6:12 AM 48.2 °F - 48.2 °F 100% 29.86 in 0.5 mi Calm Calm - N/A Fog Fog
6:31 AM 48.2 °F - 48.2 °F 100% 29.85 in 1.5 mi East 3.5 mph - N/A   Overcast
6:53 AM 48.0 °F - 48.0 °F 100% 29.85 in 1.8 mi ESE 3.5 mph - 0.01 in Rain Light Rain
7:03 AM 48.2 °F - 48.2 °F 100% 29.84 in 2.0 mi East 4.6 mph - 0.00 in Rain Light Rain
7:26 AM 48.2 °F - 48.2 °F 100% 29.83 in 1.8 mi ESE 4.6 mph - 0.00 in   Overcast
7:53 AM 50.0 °F - 50.0 °F 100% 29.83 in 0.8 mi ESE 4.6 mph - 0.00 in   Mist
8:20 AM 51.8 °F - 51.8 °F 100% 29.83 in 0.2 mi SSE 5.8 mph - 0.00 in Fog , Rain Light Rain
8:28 AM 51.8 °F - 51.8 °F 100% 29.83 in 0.8 mi SSW 9.2 mph - 0.00 in Rain Light Rain
8:34 AM 51.8 °F - 51.8 °F 100% 29.84 in 2.0 mi SSW 12.7 mph 18.4 mph 0.01 in Rain Light Rain
8:40 AM 51.8 °F - 51.8 °F 100% 29.84 in 10.0 mi SW 11.5 mph - 0.01 in   Overcast
8:53 AM 52.0 °F - 52.0 °F 100% 29.84 in 10.0 mi West 9.2 mph 18.4 mph 0.01 in   Overcast
9:04 AM 53.6 °F - 51.8 °F 94% 29.84 in 10.0 mi West 10.4 mph - N/A   Mostly Cloudy
9:53 AM 52.0 °F - 48.0 °F 86% 29.82 in 10.0 mi West 6.9 mph 20.7 mph 0.00 in Rain Light Rain
10:53 AM 54.0 °F - 50.0 °F 86% 29.82 in 10.0 mi SW 17.3 mph - 0.00 in   Mostly Cloudy
10:58 AM 55.4 °F - 50.0 °F 82% 29.82 in 10.0 mi SW 13.8 mph 23.0 mph N/A   Mostly Cloudy
11:14 AM 55.4 °F - 48.2 °F 77% 29.82 in 10.0 mi SW 12.7 mph 21.9 mph N/A   Mostly Cloudy
11:39 AM 57.2 °F - 46.4 °F 67% 29.81 in 10.0 mi SW 12.7 mph - N/A   Partly Cloudy
11:53 AM 57.9 °F - 48.0 °F 70% 29.81 in 10.0 mi SW 15.0 mph 21.9 mph N/A   Partly Cloudy
12:53 PM 60.1 °F - 39.0 °F 46% 29.80 in 10.0 mi WSW 17.3 mph 28.8 mph N/A   Partly Cloudy
1:53 PM 59.0 °F - 39.0 °F 48% 29.78 in 10.0 mi WSW 17.3 mph 31.1 mph N/A   Clear
2:53 PM 59.0 °F - 37.0 °F 44% 29.79 in 10.0 mi SW 18.4 mph 26.5 mph N/A   Clear
3:53 PM 57.9 °F - 32.0 °F 37% 29.80 in 10.0 mi West 20.7 mph 27.6 mph N/A   Clear
4:53 PM 55.0 °F - 30.0 °F 38% 29.82 in 10.0 mi WSW 18.4 mph 25.3 mph N/A   Clear
5:53 PM 53.1 °F - 28.0 °F 38% 29.86 in 10.0 mi WNW 18.4 mph 28.8 mph N/A   Scattered Clouds
6:53 PM 48.9 °F - 28.0 °F 44% 29.90 in 10.0 mi West 12.7 mph 20.7 mph N/A   Partly Cloudy
7:53 PM 46.0 °F 40.6 °F 28.0 °F 50% 29.93 in 10.0 mi West 11.5 mph 21.9 mph N/A   Clear
9:53 PM 43.0 °F 37.7 °F 27.0 °F 53% 29.97 in 10.0 mi West 9.2 mph - N/A   Clear
10:53 PM 42.1 °F 36.6 °F 26.1 °F 53% 29.98 in 10.0 mi West 9.2 mph - N/A   Partly Cloudy
11:53 PM 41.0 °F 35.8 °F 25.0 °F 53% 29.98 in 10.0 mi WNW 8.1 mph - N/A   Partly Cloudy